Vorticity
19 2 1 -2 2 12 10 10 6 15 15 16 21 18 3 12 3 3 5 4 3 6 5 3 0 2 9 8 2 1 3 2 2 3 5 3 5 4 2 2 3 6 7 7 5 3 4 4 3 5 6 6 4 7
8 13 14 14 26 4 1 9 9 11 17 11 14 18 13 16 5 4 3 6 7 3 1 3 3 2 5 9 1 -0 2 4 5 2 0 2 5 0 3 6 4 6 5 3 5 9 5 2 1 2 6 7 7 13
4 5 2 22 10 11 17 16 -8 7 9 3 10 11 10 10 11 2 4 4 1 2 3 -0 1 3 4 7 -1 -2 -0 -1 7 3 0 2 5 5 4 -1 5 8 11 6 1 7 -0 5 9 5 8 13 16 14
9 -1 1 0 0 5 5 16 10 7 2 4 -2 8 9 17 7 10 10 2 0 1 2 4 6 7 6 4 6 1 -0 -2 8 -2 1 5 3 3 -1 7 11 10 -1 1 4 6 7 15 12 14 15 12 12 11
5 7 -0 5 2 3 9 9 -2 15 4 2 6 4 6 9 13 1 5 9 8 -1 1 3 2 6 4 4 5 6 3 1 5 -2 -1 4 2 7 7 3 23 -4 -2 4 7 7 17 14 12 12 15 16 18 20
4 12 6 -1 4 11 8 7 1 9 10 7 6 1 11 6 6 6 2 5 5 6 5 3 7 8 3 2 3 3 3 5 3 4 5 8 9 7 -4 3 10 -1 13 12 10 15 19 18 18 21 22 20 19 16
-7 13 9 1 -4 6 7 7 8 3 5 12 9 7 -6 13 15 14 11 6 3 9 2 7 -2 3 4 -1 7 9 4 3 4 8 3 4 6 9 15 27 6 21 10 12 12 15 20 17 17 14 12 13 14 16
31 13 12 10 14 1 5 6 6 9 -3 -2 4 4 3 -1 -8 -3 5 8 10 13 6 6 8 3 4 9 9 9 9 6 3 4 11 15 5 14 26 3 15 12 13 18 17 18 17 16 14 14 12 11 11 12
14 10 7 21 14 8 9 4 3 6 8 9 4 8 12 3 -0 -7 9 9 7 4 13 2 -0 -3 -1 5 5 9 6 10 7 10 12 6 10 23 1 14 11 14 16 16 16 15 14 15 12 13 14 16 16 16
10 10 11 10 17 14 15 10 15 10 4 5 11 7 2 2 13 15 34 6 7 9 19 10 3 -3 11 14 19 8 14 10 10 9 8 8 18 14 8 15 15 16 14 15 16 18 19 16 16 17 17 16 15 14
12 12 11 11 11 11 16 12 20 13 16 18 17 6 13 12 8 7 7 -14 1 4 5 9 -1 10 13 5 4 17 13 6 2 2 12 -0 26 15 12 8 12 9 7 6 6 11 17 19 17 14 10 8 7 7
13 13 13 12 13 11 11 10 9 13 12 15 13 18 17 12 17 15 6 -1 5 9 2 -6 5 21 0 6 22 16 8 13 9 17 -0 12 33 15 6 7 2 6 12 11 9 11 9 8 11 -1 4 1 3 3
13 13 14 13 13 11 10 10 10 10 9 10 11 13 11 6 5 -11 -5 1 6 16 18 23 24 11 25 24 17 12 8 7 5 5 11 34 14 9 8 5 7 7 13 11 8 10 13 5 2 2 6 6 -1 10
19 16 14 13 13 13 12 13 12 12 10 11 12 8 10 2 -1 14 30 24 21 17 18 15 12 16 22 18 13 10 5 7 6 7 29 12 10 7 6 5 10 8 11 2 2 14 9 13 11 8 7 5 11 6
14 14 17 17 16 14 13 12 12 12 11 10 10 8 2 10 12 13 14 14 13 16 19 20 17 12 12 9 8 10 7 2 -1 9 10 16 5 1 1 1 11 21 10 1 1 6 14 7 8 10 7 8 6 2
20 15 15 16 17 19 19 16 14 13 10 10 11 6 14 13 16 16 12 13 13 11 9 8 9 8 7 15 8 4 2 -5 -4 23 9 -3 -0 14 5 3 3 10 6 10 3 20 11 9 11 6 5 4 3 3
26 23 18 18 17 13 15 20 20 13 12 9 8 15 12 15 12 12 12 12 12 10 8 7 6 7 7 12 14 13 4 2 12 14 8 -5 -17 12 13 16 18 31 16 17 13 7 4 5 6 7 8 3 4 4
20 27 27 23 21 20 16 13 14 15 18 10 11 16 17 18 16 16 17 15 13 12 10 8 6 5 7 12 10 8 -2 14 3 11 20 17 -1 21 12 21 11 -6 7 14 10 6 4 6 9 13 12 10 7 2
23 20 23 23 21 21 20 23 14 9 13 24 30 25 19 16 15 16 14 13 13 13 11 10 11 11 8 6 7 9 11 15 10 14 26 33 20 4 17 7 9 9 10 11 14 12 7 9 7 7 7 3 1 4
21 30 23 9 5 4 6 7 11 16 16 11 14 23 26 18 15 13 14 14 12 12 8 9 10 14 11 6 7 15 23 24 29 15 9 8 7 16 11 10 3 7 14 12 10 7 14 10 7 5 1 0 6 4
31 34 32 14 16 16 7 2 5 21 21 20 18 13 26 27 17 17 15 13 12 13 15 13 11 14 9 13 9 2 -0 12 -4 -11 10 13 11 4 -1 2 -3 -5 1 5 8 13 7 5 2 3 6 4 20 34
27 37 33 18 27 26 14 8 12 22 27 28 22 25 21 24 23 18 19 26 25 21 16 27 42 14 22 18 29 -5 22 3 -5 1 15 22 -1 -3 -6 -1 15 20 -1 7 9 9 7 3 2 4 17 33 29 21
21 37 20 11 38 35 16 38 36 29 29 23 22 33 33 24 28 12 5 5 25 27 5 -8 -1 11 27 20 16 1 -3 16 23 17 21 1 6 4 -2 20 15 -1 8 9 8 5 5 7 19 29 26 23 17 12
25 24 14 -13 -5 -9 11 16 -1 22 13 24 23 -1 -3 -10 1 -10 -6 33 35 25 21 22 18 15 13 10 13 16 18 19 12 9 8 -1 10 15 7 1 8 11 8 9 6 8 20 27 28 24 17 13 12 14
8 -1 7 30 -2 -8 5 1 -8 -2 7 11 6 -12 24 -24 8 26 12 17 23 18 20 22 20 20 22 22 22 18 11 9 5 9 11 3 -0 2 9 13 9 5 6 12 20 29 29 20 14 12 10 14 15 18
8 25 24 -1 7 12 -25 5 5 20 12 23 31 31 36 29 28 38 34 20 12 10 10 10 11 13 13 18 13 10 6 5 3 4 5 12 15 10 6 6 12 23 28 27 24 16 14 13 14 15 17 18 16 14
35 24 10 -1 10 30 28 14 16 19 20 16 20 10 14 20 14 5 1 6 10 8 8 7 5 5 4 2 3 3 3 6 12 11 6 4 5 11 21 24 24 19 17 15 12 10 13 16 17 16 15 16 18 20
19 38 33 17 6 6 2 5 -1 21 12 6 -1 12 8 6 12 17 17 12 9 8 6 6 5 4 5 7 11 10 6 4 5 11 22 25 23 20 17 14 14 13 12 11 14 17 17 16 17 16 16 17 18 15
0 3 10 29 25 24 20 17 28 12 9 12 12 15 13 13 11 10 5 5 5 4 5 6 7 7 4 3 7 20 26 26 24 19 16 15 15 12 10 10 11 14 16 18 17 17 18 19 14 11 13 15 21 13
-2 -2 6 2 5 15 13 18 18 12 14 9 9 8 9 5 2 4 4 4 3 3 4 8 15 22 27 26 23 22 18 14 12 11 10 8 8 11 14 16 17 15 13 13 14 15 16 16 15 16 13 20 23 9
7 7 10 8 8 8 7 6 6 4 4 3 3 4 4 3 4 7 11 17 24 27 26 23 21 16 12 12 9 6 10 9 8 9 13 18 19 16 12 11 12 14 16 19 21 22 24 21 16 18 16 24 11 34
26 22 21 21 17 10 10 7 8 8 8 10 12 16 20 29 28 26 23 22 18 13 11 9 9 9 4 9 12 10 10 13 18 18 15 11 10 14 21 23 22 21 20 20 22 25 32 21 16 16 21 17 34 11
25 26 30 28 31 29 32 26 30 31 31 27 24 22 21 19 13 12 10 7 5 5 8 8 7 2 9 12 14 19 19 15 12 13 23 26 18 15 17 20 20 19 24 21 30 33 24 18 17 16 28 24 6 3
Height
5628 5637 5644 5651 5658 5664 5670 5674 5680 5685 5690 5693 5696 5700 5704 5707 5711 5714 5716 5718 5720 5721 5722 5723 5724 5725 5726 5726 5726 5727 5727 5726 5726 5726 5726 5726 5726 5726 5725 5725 5723 5723 5721 5720 5718 5716 5714 5709 5705 5703 5699 5694 5690 5686
5614 5622 5630 5637 5644 5651 5657 5663 5669 5674 5678 5683 5685 5689 5693 5697 5701 5705 5707 5709 5712 5714 5716 5716 5717 5718 5719 5720 5721 5721 5721 5721 5720 5719 5719 5719 5719 5719 5719 5719 5717 5717 5716 5713 5711 5708 5702 5697 5693 5689 5685 5681 5677 5672
5600 5608 5616 5624 5631 5638 5644 5651 5657 5663 5667 5671 5674 5679 5683 5686 5690 5695 5698 5700 5702 5705 5707 5709 5710 5711 5711 5712 5714 5714 5714 5714 5713 5712 5712 5711 5710 5710 5710 5708 5707 5708 5704 5702 5698 5698 5693 5686 5682 5678 5673 5668 5662 5656
5587 5595 5603 5611 5618 5625 5631 5638 5644 5650 5655 5659 5663 5667 5671 5675 5679 5683 5687 5690 5692 5695 5697 5700 5700 5702 5703 5704 5705 5706 5705 5705 5705 5703 5703 5702 5701 5701 5700 5698 5697 5695 5691 5686 5683 5682 5679 5675 5668 5661 5655 5649 5644 5640
5573 5581 5589 5597 5604 5611 5618 5624 5630 5637 5642 5646 5652 5655 5659 5663 5667 5672 5675 5678 5681 5686 5688 5690 5691 5693 5693 5694 5695 5696 5696 5695 5693 5693 5693 5692 5691 5689 5688 5687 5689 5680 5675 5672 5671 5667 5662 5659 5653 5647 5640 5634 5628 5624
5560 5567 5575 5582 5590 5596 5603 5610 5616 5622 5628 5633 5639 5643 5647 5651 5655 5659 5663 5667 5669 5673 5677 5680 5682 5683 5683 5684 5684 5684 5684 5683 5683 5682 5682 5681 5678 5675 5675 5676 5674 5666 5663 5660 5656 5652 5648 5641 5636 5631 5626 5621 5616 5611
5545 5553 5561 5568 5575 5582 5589 5595 5601 5608 5614 5620 5625 5630 5634 5638 5642 5646 5651 5653 5656 5660 5664 5668 5671 5673 5673 5673 5672 5672 5672 5671 5670 5670 5670 5668 5665 5660 5660 5658 5655 5653 5651 5647 5642 5638 5633 5627 5622 5616 5613 5609 5604 5600
5528 5537 5545 5553 5560 5568 5574 5580 5587 5593 5600 5605 5609 5614 5619 5623 5628 5633 5636 5639 5643 5647 5652 5655 5659 5661 5661 5659 5659 5658 5658 5657 5657 5656 5657 5654 5651 5646 5645 5642 5641 5639 5635 5632 5629 5624 5620 5615 5610 5606 5601 5597 5593 5589
5512 5520 5529 5537 5545 5553 5559 5564 5571 5578 5584 5589 5594 5598 5603 5607 5613 5618 5618 5622 5629 5636 5640 5645 5647 5647 5645 5645 5644 5644 5643 5641 5643 5644 5643 5640 5640 5636 5629 5628 5627 5625 5623 5620 5616 5611 5607 5603 5598 5594 5590 5586 5581 5577
5496 5503 5512 5521 5528 5535 5542 5548 5554 5561 5568 5572 5577 5582 5587 5593 5599 5600 5600 5604 5615 5623 5629 5633 5633 5631 5630 5628 5627 5629 5627 5627 5629 5631 5626 5628 5630 5624 5616 5615 5614 5612 5610 5606 5602 5598 5595 5592 5587 5582 5578 5575 5570 5566
5480 5487 5494 5502 5510 5516 5524 5531 5536 5543 5549 5553 5558 5563 5570 5574 5578 5579 5585 5593 5603 5613 5616 5619 5618 5615 5613 5614 5612 5612 5612 5611 5613 5617 5613 5616 5620 5611 5606 5604 5602 5600 5597 5594 5591 5588 5584 5580 5576 5572 5568 5564 5560 5555
5464 5471 5478 5485 5492 5499 5506 5512 5518 5526 5531 5536 5541 5546 5550 5552 5555 5559 5569 5585 5592 5597 5601 5603 5602 5603 5604 5601 5597 5598 5597 5597 5599 5602 5601 5603 5608 5599 5593 5592 5591 5589 5586 5583 5580 5577 5573 5569 5566 5562 5558 5554 5550 5544
5447 5452 5460 5466 5474 5480 5488 5494 5499 5505 5511 5517 5522 5527 5531 5534 5535 5543 5565 5571 5575 5581 5589 5591 5590 5587 5587 5586 5583 5583 5583 5584 5586 5587 5590 5595 5591 5585 5582 5581 5579 5577 5574 5572 5570 5567 5562 5558 5555 5552 5547 5543 5538 5533
5430 5436 5443 5449 5455 5464 5470 5477 5482 5485 5490 5497 5501 5505 5511 5519 5529 5541 5552 5558 5562 5565 5568 5568 5568 5569 5570 5571 5570 5570 5568 5570 5572 5576 5581 5579 5574 5572 5570 5569 5568 5566 5563 5561 5559 5555 5551 5547 5543 5539 5534 5530 5525 5520
5415 5420 5425 5434 5438 5443 5451 5458 5461 5464 5469 5474 5479 5482 5502 5522 5525 5532 5538 5541 5543 5546 5550 5550 5550 5552 5554 5555 5556 5556 5556 5557 5564 5570 5566 5562 5561 5561 5559 5557 5556 5553 5551 5549 5546 5543 5539 5535 5531 5526 5521 5516 5511 5505
5399 5405 5414 5414 5420 5427 5433 5438 5440 5444 5448 5454 5458 5479 5504 5506 5515 5519 5524 5527 5529 5531 5532 5532 5533 5535 5536 5538 5539 5543 5545 5550 5557 5555 5551 5548 5548 5547 5546 5544 5543 5540 5538 5535 5532 5529 5525 5521 5517 5512 5507 5501 5496 5489
5384 5393 5395 5400 5407 5413 5417 5419 5423 5426 5430 5433 5458 5477 5484 5490 5496 5501 5503 5508 5510 5511 5515 5516 5518 5523 5521 5521 5526 5530 5536 5542 5537 5537 5535 5533 5532 5532 5531 5530 5529 5527 5524 5521 5518 5514 5510 5507 5502 5498 5493 5486 5480 5472
5373 5378 5383 5388 5392 5396 5400 5402 5406 5409 5414 5430 5448 5462 5465 5473 5479 5483 5485 5488 5491 5497 5500 5501 5504 5503 5506 5510 5517 5519 5520 5521 5522 5521 5521 5520 5519 5519 5517 5517 5515 5513 5511 5508 5504 5500 5497 5492 5487 5482 5477 5471 5464 5454
5367 5369 5373 5376 5379 5383 5386 5388 5392 5399 5410 5422 5434 5439 5445 5455 5461 5465 5467 5470 5476 5480 5481 5485 5485 5492 5498 5502 5504 5505 5507 5507 5508 5508 5507 5507 5506 5505 5505 5503 5502 5500 5497 5494 5490 5486 5481 5476 5472 5467 5461 5454 5447 5438
5359 5362 5365 5368 5370 5372 5374 5377 5382 5389 5400 5411 5417 5422 5426 5434 5442 5446 5450 5456 5460 5462 5464 5469 5475 5481 5485 5489 5492 5493 5493 5494 5495 5495 5494 5494 5493 5492 5492 5490 5489 5487 5483 5480 5476 5471 5466 5461 5455 5449 5443 5436 5428 5420
5348 5349 5352 5354 5357 5360 5363 5366 5370 5378 5385 5393 5401 5404 5410 5418 5424 5432 5437 5440 5443 5448 5454 5460 5465 5469 5474 5478 5480 5481 5483 5483 5482 5482 5482 5481 5481 5480 5478 5477 5475 5472 5469 5465 5461 5455 5450 5445 5439 5432 5424 5415 5408 5400
5340 5341 5345 5347 5350 5353 5357 5359 5364 5371 5379 5385 5390 5395 5400 5407 5414 5420 5425 5427 5433 5439 5444 5447 5450 5455 5458 5462 5465 5465 5467 5467 5469 5469 5469 5468 5467 5466 5464 5462 5461 5458 5455 5450 5446 5440 5434 5427 5421 5414 5407 5400 5392 5385
5338 5339 5343 5347 5348 5351 5357 5359 5364 5368 5372 5378 5383 5390 5395 5402 5409 5414 5417 5421 5425 5429 5432 5436 5440 5443 5446 5449 5452 5454 5455 5456 5455 5455 5454 5454 5453 5452 5450 5447 5445 5443 5439 5433 5428 5423 5417 5409 5403 5397 5391 5385 5380 5374
5339 5342 5345 5348 5351 5355 5358 5361 5365 5369 5372 5377 5382 5387 5395 5402 5406 5409 5411 5413 5415 5418 5421 5425 5429 5433 5436 5438 5440 5441 5442 5442 5441 5442 5442 5441 5440 5437 5436 5433 5430 5426 5424 5419 5412 5405 5399 5393 5388 5383 5378 5373 5368 5363
5343 5343 5347 5349 5353 5357 5360 5363 5367 5370 5373 5377 5384 5388 5393 5397 5401 5403 5405 5407 5409 5410 5413 5416 5419 5422 5424 5426 5427 5429 5430 5431 5430 5429 5427 5429 5427 5424 5421 5417 5413 5409 5407 5401 5395 5390 5384 5380 5376 5370 5365 5360 5356 5352
5344 5346 5348 5350 5353 5359 5363 5367 5371 5375 5378 5381 5385 5388 5390 5393 5394 5396 5400 5402 5403 5405 5407 5410 5413 5415 5416 5418 5419 5419 5419 5419 5419 5417 5415 5414 5412 5410 5405 5400 5395 5389 5387 5384 5380 5376 5372 5368 5363 5358 5353 5348 5344 5341
5345 5349 5353 5356 5359 5363 5367 5370 5374 5375 5377 5379 5382 5385 5387 5388 5390 5394 5395 5397 5399 5401 5402 5404 5405 5407 5408 5409 5409 5409 5408 5408 5406 5404 5401 5398 5394 5391 5388 5384 5380 5377 5373 5370 5367 5364 5360 5356 5351 5346 5342 5338 5333 5331
5349 5349 5352 5356 5359 5363 5365 5368 5371 5374 5377 5379 5381 5383 5385 5387 5388 5390 5391 5393 5394 5396 5398 5399 5400 5400 5401 5400 5399 5398 5396 5394 5392 5388 5385 5382 5379 5377 5374 5371 5368 5365 5361 5358 5355 5351 5347 5344 5341 5337 5333 5330 5327 5324
5353 5354 5355 5356 5358 5361 5363 5367 5369 5372 5374 5376 5377 5379 5381 5383 5385 5387 5388 5390 5391 5392 5393 5393 5393 5392 5391 5389 5387 5385 5383 5381 5379 5376 5373 5370 5366 5363 5361 5358 5355 5351 5349 5346 5342 5338 5336 5334 5331 5329 5325 5322 5320 5317
5354 5356 5358 5360 5362 5363 5365 5368 5370 5371 5373 5375 5377 5378 5379 5381 5382 5384 5385 5385 5385 5385 5385 5384 5383 5382 5380 5379 5377 5375 5373 5372 5370 5367 5364 5361 5357 5353 5348 5344 5340 5337 5335 5332 5330 5327 5325 5323 5321 5319 5318 5316 5314 5312
5350 5353 5356 5359 5361 5362 5364 5365 5367 5369 5371 5372 5373 5374 5376 5376 5377 5378 5378 5378 5378 5377 5377 5376 5376 5376 5374 5373 5372 5369 5365 5360 5356 5353 5350 5347 5342 5338 5334 5331 5327 5323 5321 5318 5317 5315 5314 5313 5312 5311 5311 5310 5308 5307
5345 5348 5351 5353 5355 5357 5359 5361 5362 5364 5365 5366 5367 5369 5370 5371 5372 5372 5373 5373 5374 5374 5374 5373 5371 5369 5367 5365 5361 5358 5355 5351 5346 5342 5337 5333 5328 5324 5320 5317 5314 5311 5309 5307 5305 5304 5304 5305 5305 5306 5305 5305 5304 5305
5343 5345 5346 5349 5350 5352 5354 5357 5358 5360 5362 5363 5365 5366 5367 5369 5371 5372 5372 5372 5372 5371 5370 5368 5365 5363 5360 5356 5352 5348 5343 5338 5334 5329 5325 5320 5316 5312 5309 5305 5302 5300 5298 5298 5297 5297 5298 5300 5301 5302 5302 5303 5304 5304